Regional Weather Roundup
Issued by NWS Columbia, SC

Home | Current Version | Previous Version | Text Only | Print | Product List | Glossary On
Versions: 1 2 3 4 5 6 7 8 9 10 11 12 13 14 15 16 17 18 19 20 21 22 23 24 25 26 27 28 29 30 31 32 33 34 35 36 37 38 39 40 41 42 43 44 45 46 47
000
ASUS42 KCAE 240310
RWRCAE
REGIONAL WEATHER ROUNDUP
NATIONAL WEATHER SERVICE COLUMBIA SC
1100 PM EDT TUE SEP 23 2014

NOTE: "FAIR" INDICATES FEW OR NO CLOUDS BELOW 12,000 FEET WITH NO
SIGNIFICANT WEATHER AND/OR OBSTRUCTIONS TO VISIBILITY.

NOT ALL STATIONS ARE QUALITY CONTROLLED BY THE NATIONAL
WEATHER SERVICE. USE DATA WITH CAUTION...ESPECIALLY
DEWPOINT OBSERVATIONS.

SCZ001>056-GAZ040-063>065-077-240400-
...UPSTATE SOUTH CAROLINA...

CITY           SKY/WX    TMP DP  RH WIND       PRES   REMARKS
ANDERSON       MOCLDY    58  53  84 NE7       30.30R
LIBERTY        CLOUDY    58  53  83 MISG      30.29R
SPARTANBURG    FAIR      59  54  82 NE7       30.31R
CLEMSON        MOCLDY    61  52  72 NE9       30.31R
GREENVILLE     CLOUDY    58  51  78 NE10      30.31R
GREENWOOD      CLEAR     57  52  83 NE6       30.30S
GREER          PTCLDY    56  52  86 NE6       30.30R
ROCK HILL      CLEAR     55  50  83 NE6       30.30R
CHESTER        FAIR      55  52  88 N6        30.34R
LAURENS        FAIR      54 N/A N/A NE5       30.30S


...CENTRAL SOUTH CAROLINA...

CITY           SKY/WX    TMP DP  RH WIND       PRES   REMARKS
COLUMBIA APT   PTCLDY    59  52  77 N6        30.26R
COLUMBIA OWENS PTCLDY    59  51  75 VRB3      30.27R
DARLINGTON     MOCLDY    57  52  82 NE9       30.27S
FLORENCE       CLOUDY    58  54  86 NE10      30.24F
MCENTIRE ANGB  MOCLDY    58  52  80 VRB5      30.25S
ORANGEBURG     CLOUDY    61  50  67 NE7       30.24R
SUMTER SHAW    MOCLDY    59  52  75 NE13      30.23F
NEWBERRY       FAIR      55  52  88 N9        30.31S
AIKEN          FAIR      57  55  94 N12       30.28S
BARNWELL       FAIR      61  55  82 NE9       30.23S
MANNING        CLOUDY    61  55  82 N8G18     30.22S
CAMDEN         FAIR      57  50  77 N7        30.27S
LANCASTER      LGT RAIN  54  54 100 N3        30.29R
WINNSBORO      FAIR      54  52  94 N5        30.27R


...EASTERN AND COASTAL SOUTH CAROLINA...

CITY           SKY/WX    TMP DP  RH WIND       PRES   REMARKS
MYRTLE BEACH   CLOUDY    61  55  82 N17       30.19S
N MYRTLE BCH   LGT RAIN  60  57  89 NE17G25   30.19S
CONWAY         CLOUDY    59  59 100 N9G18     30.21F
HARTSVILLE     MOCLDY    59  43  55 NE9       30.27S
FLORENCE       CLOUDY    58  54  86 NE10      30.24F
DARLINGTON     MOCLDY    57  52  82 NE9       30.27S
CHARLESTON APT MOCLDY    63  57  81 N14       30.18R
MOUNT PLEASANT MOCLDY    61  59  94 N9        30.18R FOG
WALTERBORO     DRIZZLE   63  61  94 N8        30.21S
BEAUFORT       CLOUDY    63  58  83 MISG      30.18S


...EASTERN GEORGIA...

CITY           SKY/WX    TMP DP  RH WIND       PRES   REMARKS
AUGUSTA BUSH F CLEAR     60  54  80 N9        30.24S
AUGUSTA DANIEL MOCLDY    61  53  75 N9        30.25S
THOMSON        CLEAR     62  58  88 NE7       30.30S
WASHINGTON     FAIR      61  61 100 NE6       30.27R
CLAXTON        FAIR      64  61  88 NE7       30.18S
SYLVANIA       MOCLDY    67  60  78 NE10G22   30.21R
STATESBORO     PTCLDY    62  56  80 NE8       30.20R
SAVANNAH       CLOUDY    66  58  75 N13       30.17R


...SOUTHERN NORTH CAROLINA...

CITY           SKY/WX    TMP DP  RH WIND       PRES   REMARKS
CHARLOTTE      MOCLDY    54  48  80 N7        30.31R
MONROE         PTCLDY    55  49  80 N13       30.28S
WADESBORO      RAIN      57  52  82 N5        30.29S
ROCKINGHAM     MOCLDY    55  52  91 N9        30.28S
RUTHERFORDTON  MOCLDY    54  51  92 CALM      30.33R
ASHEVILLE      MOCLDY    54  50  86 W3        30.32F

$$


USA.gov is the U.S. government's official web portal to all federal, state and local government web resources and services.